View from above orbital plane
|
View from above satellite
|
Ground track
|
The orbit data is extracted from the following two-line orbital elements,
1 25544U 98067A 19052.55031992 .00016717 00000-0 10270-3 0 9019
2 25544 51.6355 216.2174 0005732 51.3966 308.7699 15.53253010 37284
Epoch (UTC): | 21 February 2019 13:12:27 |
Eccentricity: | 0.0005732 |
inclination: | 51.6355° |
perigee height: | 403 km |
apogee height: | 411 km |
right ascension of ascending node: | 216.2174° |
argument of perigee: | 51.3966° |
revolutions per day: | 15.53253010 |
mean anomaly at epoch: | 308.7699° |
orbit number at epoch: | 3728 |
The dashed part of the orbit path shows where the satellite is in the earth's shadow,
|
|